Time,TemperatureF,DewpointF,PressureIn,WindDirection,WindDirectionDegrees,WindSpeedMPH,WindSpeedGustMPH,Humidity,HourlyPrecipIn,Conditions,Clouds,dailyrainin,SoftwareType,DateUTC
2013-09-08 00:00:00,71.2,41.4,29.82,NE,56,0.0,0.0,34,0.00,,,0.00,Wunderground v.1.15,2013-09-08 07:00:00,
2013-09-08 00:10:00,71.2,41.4,29.82,NE,45,0.0,2.0,34,0.00,,,0.00,Wunderground v.1.15,2013-09-08 07:10:00,
2013-09-08 00:15:00,71.2,41.4,29.82,NE,51,1.0,2.0,34,0.00,,,0.00,Wunderground v.1.15,2013-09-08 07:15:00,
2013-09-08 00:20:00,71.5,41.6,29.82,NE,51,1.0,1.0,34,0.00,,,0.00,Wunderground v.1.15,2013-09-08 07:20:00,
2013-09-08 00:25:00,71.9,41.2,29.82,NE,51,1.0,1.0,33,0.00,,,0.00,Wunderground v.1.15,2013-09-08 07:25:00,
2013-09-08 00:35:00,72.1,40.6,29.82,North,5,1.0,2.0,32,0.00,,,0.00,Wunderground v.1.15,2013-09-08 07:35:00,
2013-09-08 00:40:00,72.1,40.6,29.82,North,5,2.0,2.0,32,0.00,,,0.00,Wunderground v.1.15,2013-09-08 07:40:00,
2013-09-08 00:45:00,72.1,40.6,29.82,North,5,2.0,2.0,32,0.00,,,0.00,Wunderground v.1.15,2013-09-08 07:45:00,
2013-09-08 00:50:00,71.7,41.0,29.82,NE,53,2.0,2.0,33,0.00,,,0.00,Wunderground v.1.15,2013-09-08 07:50:00,
2013-09-08 01:00:00,71.5,41.6,29.82,North,5,2.0,2.0,34,0.00,,,0.00,Wunderground v.1.15,2013-09-08 08:00:00,
2013-09-08 01:05:00,72.1,41.4,29.82,North,5,1.0,2.0,33,0.00,,,0.00,Wunderground v.1.15,2013-09-08 08:05:00,
2013-09-08 01:10:00,72.2,41.5,29.81,North,5,0.0,0.0,33,0.00,,,0.00,Wunderground v.1.15,2013-09-08 08:10:00,
2013-09-08 01:20:00,72.7,41.1,29.81,NNE,23,0.0,3.0,32,0.00,,,0.00,Wunderground v.1.15,2013-09-08 08:20:00,
2013-09-08 01:25:00,73.3,41.6,29.81,NNE,12,2.0,3.0,32,0.00,,,0.00,Wunderground v.1.15,2013-09-08 08:25:00,
2013-09-08 01:30:00,73.9,41.3,29.81,NNE,12,2.0,2.0,31,0.00,,,0.00,Wunderground v.1.15,2013-09-08 08:30:00,
2013-09-08 01:40:00,73.2,41.6,29.81,NNE,12,0.0,3.0,32,0.00,,,0.00,Wunderground v.1.15,2013-09-08 08:40:00,
2013-09-08 01:45:00,72.8,41.2,29.81,NNE,12,0.0,3.0,32,0.00,,,0.00,Wunderground v.1.15,2013-09-08 08:45:00,
2013-09-08 01:50:00,72.7,41.1,29.81,NNE,26,0.0,3.0,32,0.00,,,0.00,Wunderground v.1.15,2013-09-08 08:50:00,
2013-09-08 01:55:00,73.1,40.7,29.81,NNE,26,0.0,3.0,31,0.00,,,0.00,Wunderground v.1.15,2013-09-08 08:55:00,
2013-09-08 02:00:00,73.2,40.7,29.81,NNE,26,0.0,0.0,31,0.00,,,0.00,Wunderground v.1.15,2013-09-08 09:00:00,
2013-09-08 02:10:00,72.5,40.1,29.82,NNE,26,0.0,0.0,31,0.00,,,0.00,Wunderground v.1.15,2013-09-08 09:10:00,
2013-09-08 02:15:00,72.4,40.0,29.81,NNE,26,0.0,1.0,31,0.00,,,0.00,Wunderground v.1.15,2013-09-08 09:15:00,
2013-09-08 02:20:00,72.5,40.1,29.81,NNE,26,1.0,1.0,31,0.00,,,0.00,Wunderground v.1.15,2013-09-08 09:20:00,
2013-09-08 02:25:00,72.5,40.1,29.81,NE,37,2.0,2.0,31,0.00,,,0.00,Wunderground v.1.15,2013-09-08 09:25:00,
2013-09-08 02:30:00,72.5,41.0,29.81,NE,37,2.0,2.0,32,0.00,,,0.00,Wunderground v.1.15,2013-09-08 09:30:00,
2013-09-08 02:35:00,72.5,40.1,29.81,NE,37,1.0,2.0,31,0.00,,,0.00,Wunderground v.1.15,2013-09-08 09:35:00,
2013-09-08 02:40:00,72.2,39.9,29.81,NE,37,0.0,2.0,31,0.00,,,0.00,Wunderground v.1.15,2013-09-08 09:40:00,
2013-09-08 02:45:00,72.2,40.7,29.81,NE,37,0.0,2.0,32,0.00,,,0.00,Wunderground v.1.15,2013-09-08 09:45:00,
2013-09-08 02:50:00,72.4,40.9,29.81,NE,37,1.0,2.0,32,0.00,,,0.00,Wunderground v.1.15,2013-09-08 09:50:00,
2013-09-08 02:55:00,72.5,41.0,29.81,NE,37,2.0,2.0,32,0.00,,,0.00,Wunderground v.1.15,2013-09-08 09:55:00,
2013-09-08 03:05:00,73.0,42.2,29.80,NE,37,2.0,2.0,33,0.00,,,0.00,Wunderground v.1.15,2013-09-08 10:05:00,
2013-09-08 03:10:00,73.4,42.5,29.80,NE,37,2.0,2.0,33,0.00,,,0.00,Wunderground v.1.15,2013-09-08 10:10:00,
2013-09-08 03:15:00,73.8,42.1,29.80,NE,37,2.0,2.0,32,0.00,,,0.00,Wunderground v.1.15,2013-09-08 10:15:00,
2013-09-08 03:20:00,74.2,42.4,29.80,NE,35,2.0,2.0,32,0.00,,,0.00,Wunderground v.1.15,2013-09-08 10:20:00,
2013-09-08 03:25:00,74.1,41.5,29.80,NNE,30,2.0,2.0,31,0.00,,,0.00,Wunderground v.1.15,2013-09-08 10:25:00,
2013-09-08 03:30:00,73.7,42.0,29.80,NE,40,2.0,2.0,32,0.00,,,0.00,Wunderground v.1.15,2013-09-08 10:30:00,
2013-09-08 03:35:00,73.3,42.4,29.80,NNE,29,2.0,3.0,33,0.00,,,0.00,Wunderground v.1.15,2013-09-08 10:35:00,
2013-09-08 03:40:00,73.3,42.4,29.80,NNE,31,2.0,3.0,33,0.00,,,0.00,Wunderground v.1.15,2013-09-08 10:40:00,
2013-09-08 03:45:00,73.3,42.4,29.80,NNE,23,2.0,3.0,33,0.00,,,0.00,Wunderground v.1.15,2013-09-08 10:45:00,
2013-09-08 03:55:00,73.8,40.4,29.80,North,360,3.0,3.0,30,0.00,,,0.00,Wunderground v.1.15,2013-09-08 10:55:00,
2013-09-08 04:05:00,74.4,41.8,29.80,NNE,24,2.0,3.0,31,0.00,,,0.00,Wunderground v.1.15,2013-09-08 11:05:00,
2013-09-08 04:10:00,74.3,40.8,29.80,NNE,19,3.0,3.0,30,0.00,,,0.00,Wunderground v.1.15,2013-09-08 11:10:00,
2013-09-08 04:15:00,74.2,40.8,29.80,NNE,13,3.0,4.0,30,0.00,,,0.00,Wunderground v.1.15,2013-09-08 11:15:00,
2013-09-08 04:20:00,74.2,40.8,29.80,NNE,17,4.0,4.0,30,0.00,,,0.00,Wunderground v.1.15,2013-09-08 11:20:00,
2013-09-08 04:30:00,73.9,40.5,29.80,NNE,14,3.0,5.0,30,0.00,,,0.00,Wunderground v.1.15,2013-09-08 11:30:00,
2013-09-08 04:35:00,73.7,39.5,29.80,NNE,12,3.0,5.0,29,0.00,,,0.00,Wunderground v.1.15,2013-09-08 11:35:00,
2013-09-08 04:45:00,73.6,39.4,29.80,North,5,4.0,4.0,29,0.00,,,0.00,Wunderground v.1.15,2013-09-08 11:45:00,
2013-09-08 04:50:00,73.7,39.5,29.80,North,9,4.0,4.0,29,0.00,,,0.00,Wunderground v.1.15,2013-09-08 11:50:00,
2013-09-08 04:55:00,73.7,38.6,29.80,NNE,13,4.0,4.0,28,0.00,,,0.00,Wunderground v.1.15,2013-09-08 11:55:00,
2013-09-08 05:00:00,73.6,38.5,29.80,North,9,4.0,5.0,28,0.00,,,0.00,Wunderground v.1.15,2013-09-08 12:00:00,
2013-09-08 05:10:00,73.7,38.6,29.80,NNE,32,4.0,4.0,28,0.00,,,0.00,Wunderground v.1.15,2013-09-08 12:10:00,
2013-09-08 05:15:00,73.7,38.6,29.80,North,5,4.0,4.0,28,0.00,,,0.00,Wunderground v.1.15,2013-09-08 12:15:00,
2013-09-08 05:20:00,73.7,38.6,29.80,NNE,23,4.0,5.0,28,0.00,,,0.00,Wunderground v.1.15,2013-09-08 12:20:00,
2013-09-08 05:30:00,73.8,38.6,29.80,NNE,22,4.0,5.0,28,0.00,,,0.00,Wunderground v.1.15,2013-09-08 12:30:00,
2013-09-08 05:40:00,74.0,38.8,29.80,NNE,31,4.0,5.0,28,0.00,,,0.00,Wunderground v.1.15,2013-09-08 12:40:00,
2013-09-08 05:45:00,74.0,38.8,29.80,North,355,4.0,5.0,28,0.00,,,0.00,Wunderground v.1.15,2013-09-08 12:45:00,
2013-09-08 05:50:00,73.9,38.7,29.80,NNE,15,4.0,4.0,28,0.00,,,0.00,Wunderground v.1.15,2013-09-08 12:50:00,
2013-09-08 05:55:00,73.9,38.7,29.80,North,5,4.0,5.0,28,0.00,,,0.00,Wunderground v.1.15,2013-09-08 12:55:00,
2013-09-08 06:00:00,73.9,38.7,29.80,NNW,346,4.0,4.0,28,0.00,,,0.00,Wunderground v.1.15,2013-09-08 13:00:00,
2013-09-08 06:10:00,73.9,38.7,29.80,North,9,4.0,4.0,28,0.00,,,0.00,Wunderground v.1.15,2013-09-08 13:10:00,
2013-09-08 06:15:00,73.8,38.6,29.80,NNE,26,4.0,4.0,28,0.00,,,0.00,Wunderground v.1.15,2013-09-08 13:15:00,
2013-09-08 06:20:00,73.8,37.7,29.80,North,5,4.0,4.0,27,0.00,,,0.00,Wunderground v.1.15,2013-09-08 13:20:00,
2013-09-08 06:30:00,73.9,38.7,29.80,North,355,4.0,5.0,28,0.00,,,0.00,Wunderground v.1.15,2013-09-08 13:30:00,
2013-09-08 06:35:00,74.0,38.8,29.80,North,360,5.0,6.0,28,0.00,,,0.00,Wunderground v.1.15,2013-09-08 13:35:00,
2013-09-08 06:40:00,73.9,38.7,29.80,NNE,18,5.0,5.0,28,0.00,,,0.00,Wunderground v.1.15,2013-09-08 13:40:00,
2013-09-08 06:45:00,73.8,39.5,29.80,North,9,4.0,6.0,29,0.00,,,0.00,Wunderground v.1.15,2013-09-08 13:45:00,
2013-09-08 06:50:00,73.5,39.3,29.80,North,9,4.0,6.0,29,0.00,,,0.00,Wunderground v.1.15,2013-09-08 13:50:00,
2013-09-08 06:55:00,73.4,39.2,29.81,North,5,4.0,6.0,29,0.00,,,0.00,Wunderground v.1.15,2013-09-08 13:55:00,
2013-09-08 07:00:00,73.6,39.4,29.81,North,5,4.0,4.0,29,0.00,,,0.00,Wunderground v.1.15,2013-09-08 14:00:00,
2013-09-08 07:10:00,74.1,39.8,29.81,North,360,4.0,5.0,29,0.00,,,0.00,Wunderground v.1.15,2013-09-08 14:10:00,
2013-09-08 07:15:00,74.1,38.9,29.81,North,355,4.0,5.0,28,0.00,,,0.00,Wunderground v.1.15,2013-09-08 14:15:00,
2013-09-08 07:20:00,74.2,39.0,29.81,NNE,19,5.0,7.0,28,0.00,,,0.00,Wunderground v.1.15,2013-09-08 14:20:00,
2013-09-08 07:25:00,74.5,38.3,29.81,North,10,5.0,7.0,27,0.00,,,0.00,Wunderground v.1.15,2013-09-08 14:25:00,
2013-09-08 07:30:00,74.7,38.5,29.81,North,355,6.0,6.0,27,0.00,,,0.00,Wunderground v.1.15,2013-09-08 14:30:00,
2013-09-08 07:35:00,75.2,37.9,29.81,North,5,5.0,7.0,26,0.00,,,0.00,Wunderground v.1.15,2013-09-08 14:35:00,
2013-09-08 07:40:00,75.7,38.4,29.81,North,355,4.0,4.0,26,0.00,,,0.00,Wunderground v.1.15,2013-09-08 14:40:00,
2013-09-08 07:45:00,76.0,38.6,29.81,NNE,33,4.0,5.0,26,0.00,,,0.00,Wunderground v.1.15,2013-09-08 14:45:00,
2013-09-08 07:50:00,76.2,38.8,29.81,NNE,33,5.0,7.0,26,0.00,,,0.00,Wunderground v.1.15,2013-09-08 14:50:00,
2013-09-08 07:55:00,76.5,39.0,29.81,North,5,5.0,7.0,26,0.00,,,0.00,Wunderground v.1.15,2013-09-08 14:55:00,
2013-09-08 08:00:00,76.9,39.4,29.81,North,5,5.0,5.0,26,0.00,,,0.00,Wunderground v.1.15,2013-09-08 15:00:00,
2013-09-08 08:10:00,77.7,39.1,29.81,NNW,348,4.0,4.0,25,0.00,,,0.00,Wunderground v.1.15,2013-09-08 15:10:00,
2013-09-08 08:15:00,78.0,39.3,29.81,North,360,4.0,4.0,25,0.00,,,0.00,Wunderground v.1.15,2013-09-08 15:15:00,
2013-09-08 08:20:00,78.0,40.3,29.81,NNE,20,4.0,5.0,26,0.00,,,0.00,Wunderground v.1.15,2013-09-08 15:20:00,
2013-09-08 08:25:00,78.0,40.3,29.81,North,350,5.0,6.0,26,0.00,,,0.00,Wunderground v.1.15,2013-09-08 15:25:00,
2013-09-08 08:30:00,78.1,40.4,29.81,NNE,17,6.0,6.0,26,0.00,,,0.00,Wunderground v.1.15,2013-09-08 15:30:00,
2013-09-08 08:35:00,78.5,40.7,29.81,North,355,6.0,8.0,26,0.00,,,0.00,Wunderground v.1.15,2013-09-08 15:35:00,
2013-09-08 08:40:00,79.1,41.3,29.81,North,355,5.0,5.0,26,0.00,,,0.00,Wunderground v.1.15,2013-09-08 15:40:00,
2013-09-08 08:45:00,79.5,40.6,29.81,NNE,13,5.0,6.0,25,0.00,,,0.00,Wunderground v.1.15,2013-09-08 15:45:00,
2013-09-08 08:55:00,79.8,41.9,29.81,NE,34,5.0,8.0,26,0.00,,,0.00,Wunderground v.1.15,2013-09-08 15:55:00,
2013-09-08 09:00:00,80.4,41.3,29.81,NNE,24,5.0,5.0,25,0.00,,,0.00,Wunderground v.1.15,2013-09-08 16:00:00,
2013-09-08 09:10:00,80.9,41.8,29.81,NNW,344,5.0,5.0,25,0.00,,,0.00,Wunderground v.1.15,2013-09-08 16:10:00,
2013-09-08 09:15:00,81.2,43.0,29.81,WNW,294,4.0,5.0,26,0.00,,,0.00,Wunderground v.1.15,2013-09-08 16:15:00,
2013-09-08 09:20:00,80.5,43.4,29.81,SW,228,2.0,2.0,27,0.00,,,0.00,Wunderground v.1.15,2013-09-08 16:20:00,
2013-09-08 09:25:00,81.2,43.0,29.81,SSW,206,1.0,2.0,26,0.00,,,0.00,Wunderground v.1.15,2013-09-08 16:25:00,
2013-09-08 09:30:00,82.1,42.8,29.81,NNE,25,2.0,6.0,25,0.00,,,0.00,Wunderground v.1.15,2013-09-08 16:30:00,
2013-09-08 09:35:00,81.2,42.0,29.81,NNE,33,4.0,8.0,25,0.00,,,0.00,Wunderground v.1.15,2013-09-08 16:35:00,
2013-09-08 09:40:00,80.6,42.5,29.81,NNE,32,5.0,9.0,26,0.00,,,0.00,Wunderground v.1.15,2013-09-08 16:40:00,
2013-09-08 09:50:00,80.6,43.5,29.81,NNE,19,5.0,9.0,27,0.00,,,0.00,Wunderground v.1.15,2013-09-08 16:50:00,
2013-09-08 09:55:00,80.3,44.2,29.81,NE,46,5.0,9.0,28,0.00,,,0.00,Wunderground v.1.15,2013-09-08 16:55:00,
2013-09-08 10:00:00,80.0,43.0,29.81,NNE,13,6.0,8.0,27,0.00,,,0.00,Wunderground v.1.15,2013-09-08 17:00:00,
2013-09-08 10:10:00,79.6,43.6,29.82,NE,39,8.0,8.0,28,0.00,,,0.00,Wunderground v.1.15,2013-09-08 17:10:00,
2013-09-08 10:15:00,79.7,43.7,29.81,North,360,7.0,8.0,28,0.00,,,0.00,Wunderground v.1.15,2013-09-08 17:15:00,
2013-09-08 10:20:00,80.2,44.1,29.81,NNW,344,7.0,7.0,28,0.00,,,0.00,Wunderground v.1.15,2013-09-08 17:20:00,
2013-09-08 10:25:00,80.8,43.7,29.81,NNE,15,7.0,7.0,27,0.00,,,0.00,Wunderground v.1.15,2013-09-08 17:25:00,
2013-09-08 10:30:00,80.2,45.1,29.81,North,350,8.0,8.0,29,0.00,,,0.00,Wunderground v.1.15,2013-09-08 17:30:00,
2013-09-08 10:40:00,80.6,44.5,29.81,North,360,9.0,10.0,28,0.00,,,0.00,Wunderground v.1.15,2013-09-08 17:40:00,
2013-09-08 10:45:00,81.2,45.0,29.81,North,355,8.0,10.0,28,0.00,,,0.00,Wunderground v.1.15,2013-09-08 17:45:00,
2013-09-08 10:50:00,81.3,45.1,29.82,North,9,8.0,9.0,28,0.00,,,0.00,Wunderground v.1.15,2013-09-08 17:50:00,
2013-09-08 10:55:00,81.2,44.0,29.82,NNE,12,8.0,9.0,27,0.00,,,0.00,Wunderground v.1.15,2013-09-08 17:55:00,
2013-09-08 11:00:00,80.9,45.7,29.82,North,355,8.0,8.0,29,0.00,,,0.00,Wunderground v.1.15,2013-09-08 18:00:00,
2013-09-08 11:10:00,81.7,45.4,29.81,North,10,8.0,9.0,28,0.00,,,0.00,Wunderground v.1.15,2013-09-08 18:10:00,
2013-09-08 11:15:00,82.0,45.7,29.81,NNW,341,8.0,9.0,28,0.00,,,0.00,Wunderground v.1.15,2013-09-08 18:15:00,
2013-09-08 11:20:00,82.1,44.8,29.81,North,9,8.0,10.0,27,0.00,,,0.00,Wunderground v.1.15,2013-09-08 18:20:00,
2013-09-08 11:25:00,81.9,45.6,29.81,North,350,9.0,11.0,28,0.00,,,0.00,Wunderground v.1.15,2013-09-08 18:25:00,
2013-09-08 11:35:00,81.9,46.5,29.81,North,360,9.0,11.0,29,0.00,,,0.00,Wunderground v.1.15,2013-09-08 18:35:00,
2013-09-08 11:40:00,81.9,46.5,29.81,North,355,10.0,13.0,29,0.00,,,0.00,Wunderground v.1.15,2013-09-08 18:40:00,
2013-09-08 11:45:00,81.9,46.5,29.81,North,5,10.0,13.0,29,0.00,,,0.00,Wunderground v.1.15,2013-09-08 18:45:00,
2013-09-08 11:55:00,82.0,46.6,29.81,North,360,9.0,13.0,29,0.00,,,0.00,Wunderground v.1.15,2013-09-08 18:55:00,
2013-09-08 12:00:00,81.8,47.3,29.81,NNE,25,9.0,9.0,30,0.00,,,0.00,Wunderground v.1.15,2013-09-08 19:00:00,
2013-09-08 12:10:00,82.5,48.8,29.81,North,11,8.0,8.0,31,0.00,,,0.00,Wunderground v.1.15,2013-09-08 19:10:00,
2013-09-08 12:20:00,83.0,48.4,29.80,NE,44,8.0,14.0,30,0.00,,,0.00,Wunderground v.1.15,2013-09-08 19:20:00,
2013-09-08 12:25:00,83.2,48.5,29.80,NNW,336,8.0,14.0,30,0.00,,,0.00,Wunderground v.1.15,2013-09-08 19:25:00,
2013-09-08 12:30:00,83.6,48.9,29.80,North,351,8.0,8.0,30,0.00,,,0.00,Wunderground v.1.15,2013-09-08 19:30:00,
2013-09-08 12:35:00,83.9,49.1,29.80,North,355,8.0,14.0,30,0.00,,,0.00,Wunderground v.1.15,2013-09-08 19:35:00,
2013-09-08 12:40:00,83.7,49.0,29.80,NNW,338,7.0,7.0,30,0.00,,,0.00,Wunderground v.1.15,2013-09-08 19:40:00,
2013-09-08 12:45:00,83.5,49.7,29.80,NNW,328,7.0,14.0,31,0.00,,,0.00,Wunderground v.1.15,2013-09-08 19:45:00,
2013-09-08 12:50:00,83.9,50.0,29.80,North,355,7.0,7.0,31,0.00,,,0.00,Wunderground v.1.15,2013-09-08 19:50:00,
2013-09-08 12:55:00,85.0,50.1,29.80,NNE,25,7.0,14.0,30,0.00,,,0.00,Wunderground v.1.15,2013-09-08 19:55:00,
2013-09-08 13:00:00,85.5,49.6,29.80,North,360,7.0,7.0,29,0.00,,,0.00,Wunderground v.1.15,2013-09-08 20:00:00,
2013-09-08 13:10:00,85.4,49.5,29.80,NNW,346,7.0,7.0,29,0.00,,,0.00,Wunderground v.1.15,2013-09-08 20:10:00,
2013-09-08 13:15:00,86.0,50.0,29.80,NNE,19,6.0,7.0,29,0.00,,,0.00,Wunderground v.1.15,2013-09-08 20:15:00,
2013-09-08 13:20:00,86.2,50.2,29.80,North,360,6.0,7.0,29,0.00,,,0.00,Wunderground v.1.15,2013-09-08 20:20:00,
2013-09-08 13:25:00,86.3,50.3,29.80,North,5,7.0,8.0,29,0.00,,,0.00,Wunderground v.1.15,2013-09-08 20:25:00,
2013-09-08 13:30:00,86.2,50.2,29.80,NE,37,7.0,7.0,29,0.00,,,0.00,Wunderground v.1.15,2013-09-08 20:30:00,
2013-09-08 13:40:00,86.2,50.2,29.80,NNW,343,6.0,12.0,29,0.00,,,0.00,Wunderground v.1.15,2013-09-08 20:40:00,
2013-09-08 13:45:00,86.5,50.5,29.79,North,5,6.0,12.0,29,0.00,,,0.00,Wunderground v.1.15,2013-09-08 20:45:00,
2013-09-08 13:50:00,86.6,50.6,29.79,NW,311,6.0,6.0,29,0.00,,,0.00,Wunderground v.1.15,2013-09-08 20:50:00,
2013-09-08 13:55:00,86.9,49.9,29.79,North,5,6.0,12.0,28,0.00,,,0.00,Wunderground v.1.15,2013-09-08 20:55:00,
2013-09-08 14:00:00,87.1,50.0,29.79,NW,314,7.0,8.0,28,0.00,,,0.00,Wunderground v.1.15,2013-09-08 21:00:00,
2013-09-08 14:10:00,87.7,50.6,29.79,NNW,343,6.0,7.0,28,0.00,,,0.00,Wunderground v.1.15,2013-09-08 21:10:00,
2013-09-08 14:15:00,88.2,50.0,29.79,WNW,298,6.0,7.0,27,0.00,,,0.00,Wunderground v.1.15,2013-09-08 21:15:00,
2013-09-08 14:20:00,87.8,50.6,29.79,North,355,7.0,7.0,28,0.00,,,0.00,Wunderground v.1.15,2013-09-08 21:20:00,
2013-09-08 14:25:00,88.4,50.2,29.78,NW,326,6.0,7.0,27,0.00,,,0.00,Wunderground v.1.15,2013-09-08 21:25:00,
2013-09-08 14:30:00,88.5,50.3,29.78,NNW,329,5.0,6.0,27,0.00,,,0.00,Wunderground v.1.15,2013-09-08 21:30:00,
2013-09-08 14:35:00,88.0,50.8,29.78,NW,324,6.0,12.0,28,0.00,,,0.00,Wunderground v.1.15,2013-09-08 21:35:00,
2013-09-08 14:45:00,87.9,50.7,29.78,NW,318,7.0,12.0,28,0.00,,,0.00,Wunderground v.1.15,2013-09-08 21:45:00,
2013-09-08 14:50:00,88.0,50.8,29.78,NNW,332,8.0,12.0,28,0.00,,,0.00,Wunderground v.1.15,2013-09-08 21:50:00,
2013-09-08 14:55:00,88.4,50.2,29.78,NNW,346,7.0,12.0,27,0.00,,,0.00,Wunderground v.1.15,2013-09-08 21:55:00,
2013-09-08 15:05:00,89.0,49.7,29.77,NNW,339,6.0,7.0,26,0.00,,,0.00,Wunderground v.1.15,2013-09-08 22:05:00,
2013-09-08 15:10:00,88.3,48.0,29.77,North,360,6.0,6.0,25,0.00,,,0.00,Wunderground v.1.15,2013-09-08 22:10:00,
2013-09-08 15:15:00,88.3,48.0,29.77,NNW,343,6.0,6.0,25,0.00,,,0.00,Wunderground v.1.15,2013-09-08 22:15:00,
2013-09-08 15:20:00,88.4,49.2,29.77,North,355,6.0,8.0,26,0.00,,,0.00,Wunderground v.1.15,2013-09-08 22:20:00,
2013-09-08 15:25:00,88.7,49.4,29.77,WNW,299,5.0,8.0,26,0.00,,,0.00,Wunderground v.1.15,2013-09-08 22:25:00,
2013-09-08 15:30:00,89.1,48.7,29.77,North,5,6.0,6.0,25,0.00,,,0.00,Wunderground v.1.15,2013-09-08 22:30:00,
2013-09-08 15:35:00,89.1,47.6,29.77,NNW,340,6.0,12.0,24,0.00,,,0.00,Wunderground v.1.15,2013-09-08 22:35:00,
2013-09-08 15:40:00,88.7,47.3,29.77,NNW,329,6.0,6.0,24,0.00,,,0.00,Wunderground v.1.15,2013-09-08 22:40:00,
2013-09-08 15:45:00,89.1,48.7,29.77,NNW,339,6.0,12.0,25,0.00,,,0.00,Wunderground v.1.15,2013-09-08 22:45:00,
2013-09-08 15:55:00,89.4,50.0,29.76,NNW,346,6.0,12.0,26,0.00,,,0.00,Wunderground v.1.15,2013-09-08 22:55:00,
2013-09-08 16:10:00,89.6,48.0,29.76,WNW,303,6.0,7.0,24,0.00,,,0.00,Wunderground v.1.15,2013-09-08 23:10:00,
2013-09-08 16:20:00,89.3,48.9,29.75,WNW,294,6.0,6.0,25,0.00,,,0.00,Wunderground v.1.15,2013-09-08 23:20:00,
2013-09-08 16:30:00,89.2,47.7,29.75,WNW,294,6.0,7.0,24,0.00,,,0.00,Wunderground v.1.15,2013-09-08 23:30:00,
2013-09-08 16:35:00,88.8,48.4,29.75,NW,320,7.0,11.0,25,0.00,,,0.00,Wunderground v.1.15,2013-09-08 23:35:00,
2013-09-08 16:40:00,88.5,47.1,29.75,NW,325,7.0,7.0,24,0.00,,,0.00,Wunderground v.1.15,2013-09-08 23:40:00,
2013-09-08 16:50:00,88.7,51.4,29.75,NW,309,6.0,11.0,28,0.00,,,0.00,Wunderground v.1.15,2013-09-08 23:50:00,
2013-09-08 16:55:00,89.0,51.7,29.75,WNW,294,5.0,11.0,28,0.00,,,0.00,Wunderground v.1.15,2013-09-08 23:55:00,
2013-09-08 17:00:00,90.2,51.7,29.75,WNW,297,3.0,3.0,27,0.00,,,0.00,Wunderground v.1.15,2013-09-09 00:00:00,
2013-09-08 17:10:00,90.8,52.2,29.75,WNW,292,2.0,2.0,27,0.00,,,0.00,Wunderground v.1.15,2013-09-09 00:10:00,
2013-09-08 17:15:00,90.4,51.9,29.75,NW,313,2.0,3.0,27,0.00,,,0.00,Wunderground v.1.15,2013-09-09 00:15:00,
2013-09-08 17:20:00,89.3,51.9,29.75,WNW,298,3.0,9.0,28,0.00,,,0.00,Wunderground v.1.15,2013-09-09 00:20:00,
2013-09-08 17:25:00,88.6,51.3,29.75,WNW,292,4.0,9.0,28,0.00,,,0.00,Wunderground v.1.15,2013-09-09 00:25:00,
2013-09-08 17:35:00,88.7,51.4,29.74,SW,223,3.0,13.0,28,0.00,,,0.00,Wunderground v.1.15,2013-09-09 00:35:00,
2013-09-08 17:45:00,88.4,51.1,29.74,NW,306,2.0,13.0,28,0.00,,,0.00,Wunderground v.1.15,2013-09-09 00:45:00,
2013-09-08 17:50:00,87.5,50.4,29.74,WNW,302,2.0,13.0,28,0.00,,,0.00,Wunderground v.1.15,2013-09-09 00:50:00,
2013-09-08 17:55:00,86.6,50.6,29.74,WNW,294,3.0,13.0,29,0.00,,,0.00,Wunderground v.1.15,2013-09-09 00:55:00,
2013-09-08 18:00:00,85.7,50.7,29.74,NW,309,3.0,3.0,30,0.00,,,0.00,Wunderground v.1.15,2013-09-09 01:00:00,
2013-09-08 18:10:00,84.8,50.8,29.74,WNW,302,3.0,3.0,31,0.00,,,0.00,Wunderground v.1.15,2013-09-09 01:10:00,
2013-09-08 18:15:00,84.3,50.4,29.74,WNW,294,3.0,3.0,31,0.00,,,0.00,Wunderground v.1.15,2013-09-09 01:15:00,
2013-09-08 18:20:00,84.1,51.1,29.74,WNW,298,2.0,2.0,32,0.00,,,0.00,Wunderground v.1.15,2013-09-09 01:20:00,
2013-09-08 18:25:00,83.9,50.0,29.74,WNW,291,2.0,2.0,31,0.00,,,0.00,Wunderground v.1.15,2013-09-09 01:25:00,
2013-09-08 18:35:00,83.6,50.6,29.74,West,268,2.0,6.0,32,0.00,,,0.00,Wunderground v.1.15,2013-09-09 01:35:00,
2013-09-08 18:45:00,82.5,49.7,29.74,WNW,300,2.0,6.0,32,0.00,,,0.00,Wunderground v.1.15,2013-09-09 01:45:00,
2013-09-08 18:50:00,81.9,49.1,29.74,WNW,298,3.0,3.0,32,0.00,,,0.00,Wunderground v.1.15,2013-09-09 01:50:00,
2013-09-08 18:55:00,81.4,49.5,29.74,WNW,298,2.0,6.0,33,0.00,,,0.00,Wunderground v.1.15,2013-09-09 01:55:00,
2013-09-08 19:00:00,81.1,49.3,29.74,WNW,298,1.0,1.0,33,0.00,,,0.00,Wunderground v.1.15,2013-09-09 02:00:00,
2013-09-08 19:10:00,80.5,49.5,29.74,WNW,298,0.0,0.0,34,0.00,,,0.00,Wunderground v.1.15,2013-09-09 02:10:00,
2013-09-08 19:15:00,80.2,48.5,29.74,WNW,298,0.0,0.0,33,0.00,,,0.00,Wunderground v.1.15,2013-09-09 02:15:00,
2013-09-08 19:20:00,80.0,48.3,29.74,NW,325,0.0,3.0,33,0.00,,,0.00,Wunderground v.1.15,2013-09-09 02:20:00,
2013-09-08 19:25:00,79.8,46.5,29.74,NNW,327,1.0,3.0,31,0.00,,,0.00,Wunderground v.1.15,2013-09-09 02:25:00,
2013-09-08 19:35:00,79.6,44.5,29.74,NNW,330,3.0,5.0,29,0.00,,,0.00,Wunderground v.1.15,2013-09-09 02:35:00,
2013-09-08 19:40:00,79.3,44.3,29.74,NNW,344,3.0,5.0,29,0.00,,,0.00,Wunderground v.1.15,2013-09-09 02:40:00,
2013-09-08 19:45:00,79.2,44.2,29.74,NNW,338,3.0,5.0,29,0.00,,,0.00,Wunderground v.1.15,2013-09-09 02:45:00,
2013-09-08 19:55:00,78.9,43.9,29.74,NNW,348,3.0,5.0,29,0.00,,,0.00,Wunderground v.1.15,2013-09-09 02:55:00,
2013-09-08 20:00:00,78.8,43.8,29.74,NNW,330,3.0,3.0,29,0.00,,,0.00,Wunderground v.1.15,2013-09-09 03:00:00,
2013-09-08 20:10:00,78.3,43.4,29.75,NNW,334,3.0,3.0,29,0.00,,,0.00,Wunderground v.1.15,2013-09-09 03:10:00,
2013-09-08 20:15:00,77.9,44.0,29.75,NNW,338,3.0,3.0,30,0.00,,,0.00,Wunderground v.1.15,2013-09-09 03:15:00,
2013-09-08 20:20:00,77.7,42.9,29.75,North,350,3.0,3.0,29,0.00,,,0.00,Wunderground v.1.15,2013-09-09 03:20:00,
2013-09-08 20:30:00,78.0,43.2,29.75,North,5,2.0,3.0,29,0.00,,,0.00,Wunderground v.1.15,2013-09-09 03:30:00,
2013-09-08 20:35:00,78.3,43.4,29.75,North,5,2.0,5.0,29,0.00,,,0.00,Wunderground v.1.15,2013-09-09 03:35:00,
2013-09-08 20:40:00,78.6,42.8,29.75,NNW,332,2.0,2.0,28,0.00,,,0.00,Wunderground v.1.15,2013-09-09 03:40:00,
2013-09-08 20:50:00,78.5,42.7,29.75,NNW,332,1.0,5.0,28,0.00,,,0.00,Wunderground v.1.15,2013-09-09 03:50:00,
2013-09-08 20:55:00,78.5,42.7,29.75,NNW,332,1.0,5.0,28,0.00,,,0.00,Wunderground v.1.15,2013-09-09 03:55:00,
2013-09-08 21:00:00,78.4,42.6,29.75,NNW,332,1.0,1.0,28,0.00,,,0.00,Wunderground v.1.15,2013-09-09 04:00:00,
2013-09-08 21:05:00,78.2,42.4,29.75,NNW,332,1.0,2.0,28,0.00,,,0.00,Wunderground v.1.15,2013-09-09 04:05:00,
2013-09-08 21:10:00,78.2,42.4,29.75,NNW,332,1.0,1.0,28,0.00,,,0.00,Wunderground v.1.15,2013-09-09 04:10:00,
2013-09-08 21:15:00,78.3,43.4,29.75,NNW,332,2.0,2.0,29,0.00,,,0.00,Wunderground v.1.15,2013-09-09 04:15:00,
2013-09-08 21:20:00,78.2,43.3,29.75,NNW,332,1.0,2.0,29,0.00,,,0.00,Wunderground v.1.15,2013-09-09 04:20:00,
2013-09-08 21:25:00,77.9,43.1,29.76,NNW,332,1.0,2.0,29,0.00,,,0.00,Wunderground v.1.15,2013-09-09 04:25:00,
2013-09-08 21:35:00,76.7,45.4,29.76,NW,316,0.0,4.0,33,0.00,,,0.00,Wunderground v.1.15,2013-09-09 04:35:00,
2013-09-08 21:45:00,76.2,43.3,29.76,NNE,24,0.0,4.0,31,0.00,,,0.00,Wunderground v.1.15,2013-09-09 04:45:00,
2013-09-08 21:50:00,76.5,43.6,29.76,NNE,24,0.0,4.0,31,0.00,,,0.00,Wunderground v.1.15,2013-09-09 04:50:00,
2013-09-08 21:55:00,76.6,43.7,29.76,NNE,24,0.0,4.0,31,0.00,,,0.00,Wunderground v.1.15,2013-09-09 04:55:00,
2013-09-08 22:00:00,76.5,43.6,29.76,NNE,24,0.0,0.0,31,0.00,,,0.00,Wunderground v.1.15,2013-09-09 05:00:00,
2013-09-08 22:10:00,75.9,42.2,29.76,NW,324,0.0,0.0,30,0.00,,,0.00,Wunderground v.1.15,2013-09-09 05:10:00,
2013-09-08 22:15:00,75.3,41.7,29.76,NNW,336,1.0,2.0,30,0.00,,,0.00,Wunderground v.1.15,2013-09-09 05:15:00,
2013-09-08 22:20:00,74.7,41.2,29.76,NNW,334,2.0,2.0,30,0.00,,,0.00,Wunderground v.1.15,2013-09-09 05:20:00,
2013-09-08 22:25:00,74.3,41.7,29.76,NE,37,2.0,3.0,31,0.00,,,0.00,Wunderground v.1.15,2013-09-09 05:25:00,
2013-09-08 22:35:00,74.1,46.2,29.77,NE,51,2.0,2.0,37,0.00,,,0.00,Wunderground v.1.15,2013-09-09 05:35:00,
2013-09-08 22:40:00,74.2,47.0,29.76,NNE,13,1.0,1.0,38,0.00,,,0.00,Wunderground v.1.15,2013-09-09 05:40:00,
2013-09-08 22:45:00,74.4,46.4,29.77,NNE,13,0.0,1.0,37,0.00,,,0.00,Wunderground v.1.15,2013-09-09 05:45:00,
2013-09-08 22:50:00,74.6,45.9,29.77,NNE,13,0.0,0.0,36,0.00,,,0.00,Wunderground v.1.15,2013-09-09 05:50:00,
2013-09-08 22:55:00,74.6,45.9,29.77,NNE,13,0.0,0.0,36,0.00,,,0.00,Wunderground v.1.15,2013-09-09 05:55:00,
2013-09-08 23:00:00,74.4,45.7,29.77,NNE,13,0.0,0.0,36,0.00,,,0.00,Wunderground v.1.15,2013-09-09 06:00:00,
2013-09-08 23:10:00,75.1,46.3,29.76,NNE,13,0.0,0.0,36,0.00,,,0.00,Wunderground v.1.15,2013-09-09 06:10:00,
2013-09-08 23:15:00,75.5,46.7,29.77,NNE,13,0.0,0.0,36,0.00,,,0.00,Wunderground v.1.15,2013-09-09 06:15:00,
2013-09-08 23:25:00,75.4,46.6,29.76,NNE,13,0.0,0.0,36,0.00,,,0.00,Wunderground v.1.15,2013-09-09 06:25:00,
2013-09-08 23:30:00,75.1,46.3,29.76,NNE,13,0.0,0.0,36,0.00,,,0.00,Wunderground v.1.15,2013-09-09 06:30:00,
2013-09-08 23:35:00,75.3,46.5,29.76,NNE,13,0.0,3.0,36,0.00,,,0.00,Wunderground v.1.15,2013-09-09 06:35:00,
2013-09-08 23:40:00,75.4,46.6,29.76,NE,44,0.0,3.0,36,0.00,,,0.00,Wunderground v.1.15,2013-09-09 06:40:00,
2013-09-08 23:45:00,75.3,45.0,29.76,North,10,0.0,3.0,34,0.00,,,0.00,Wunderground v.1.15,2013-09-09 06:45:00,
2013-09-08 23:55:00,76.1,45.7,29.77,North,360,3.0,3.0,34,0.00,,,0.00,Wunderground v.1.15,2013-09-09 06:55:00,